Weather History for New Philadelphia, OH

Change the Weather History Date:

Tuesday, December 10, 2013

  Actual Average Record
Temperature  
Mean Temperature 24 °F 34 °F  
Max Temperature 28 °F 42 °F 62 °F (1987)
Min Temperature 20 °F 26 °F 0 °F (1977)
Degree Days  
Heating Degree Days 41 31  
Month to date heating degree days 307 294  
Since 1 July heating degree days 1543 1452  
Cooling Degree Days 0 0  
Month to date cooling degree days 0 0  
Year to date cooling degree days 755 697  
Moisture  
Dew Point 14 °F    
Average Humidity 59    
Maximum Humidity 84    
Minimum Humidity 33    
Precipitation  
Precipitation T in 0.09 in 0.62 in (2012)
Month to date precipitation 0.75 0.96  
Year to date precipitation 31.99 37.19  
Sea Level Pressure  
Sea Level Pressure 30.14 in    
Wind  
Wind Speed 7 mph (West)    
Max Wind Speed 16 mph    
Max Gust Speed 28 mph    
Visibility 5 miles    
Events Snow    
T = Trace of Precipitation, MM = Missing Value Source: NWS Daily Summary

Daily Weather History Graph

Daily Weather History Graph

Search for Another Location

Airport:

Trip Planner

Search our weather history database for the weather conditions in past years. The results will help you decide how hot, cold, wet, or windy it might be!

Date:

Astronomy

Dec. 10, 2013 Rise Set
Actual Time 7:38 AM EST 4:59 PM EST
Civil Twilight 7:07 AM EST 5:29 PM EST
Nautical Twilight 6:33 AM EST 6:03 PM EST
Astronomical Twilight 6:00 AM EST 6:37 PM EST
Moon 1:00 PM EST (12/10) 12:53 AM EST (12/10)
Length of Visible Light 10h 22m
Length of Day
9h 20m
First Quarter, 61% of the Moon is Illuminated
Dec 10
First Quarter
Dec 17
Full
Dec 25
Last Quarter
Jan 1
New
Jan 7
First Quarter

Hourly Weather History & Observations

Time (EST) Temp. Windchill Dew Point Humidity Pressure Visibility Wind Dir Wind Speed Gust Speed Precip Events Conditions
12:53 AM 27.0 °F 18.0 °F 17.1 °F 66% 30.15 in 10.0 mi West 9.2 mph - N/A   Mostly Cloudy
1:53 AM 27.0 °F 18.7 °F 17.1 °F 66% 30.17 in 5.0 mi West 8.1 mph - 0.00 in Snow Light Snow
2:03 AM 26.6 °F 16.8 °F 17.6 °F 69% 30.15 in 2.0 mi West 10.4 mph - 0.00 in Snow Light Snow
2:10 AM 24.8 °F 17.9 °F 19.4 °F 80% 30.15 in 1.2 mi West 5.8 mph - 0.00 in Snow Light Snow
2:53 AM 24.1 °F 18.2 °F 18.0 °F 77% 30.17 in 1.5 mi West 4.6 mph - 0.00 in Snow Light Snow
3:53 AM 24.1 °F - 19.9 °F 84% 30.13 in 1.2 mi Calm Calm - 0.00 in Snow Light Snow
4:21 AM 24.8 °F 19.1 °F 19.4 °F 80% 30.11 in 2.0 mi West 4.6 mph - 0.00 in Snow Light Snow
4:38 AM 24.8 °F 20.5 °F 19.4 °F 80% 30.11 in 3.0 mi WSW 3.5 mph - 0.00 in Snow Light Snow
4:53 AM 24.1 °F - 19.9 °F 84% 30.14 in 3.0 mi Calm Calm - 0.00 in Snow Light Snow
5:25 AM 24.8 °F 20.5 °F 17.6 °F 74% 30.11 in 2.5 mi WSW 3.5 mph - 0.00 in Snow Light Snow
5:34 AM 23.0 °F 18.4 °F 17.6 °F 80% 30.11 in 2.0 mi West 3.5 mph - 0.00 in Snow Light Snow
5:43 AM 23.0 °F 18.4 °F 19.4 °F 86% 30.10 in 1.5 mi SW 3.5 mph - 0.00 in Snow Light Snow
5:53 AM 23.0 °F 15.8 °F 18.0 °F 81% 30.14 in 1.0 mi Variable 5.8 mph - 0.00 in Snow Light Snow
6:03 AM 21.2 °F 14.9 °F 19.4 °F 93% 30.09 in 0.8 mi WSW 4.6 mph - 0.00 in Snow Light Snow
6:13 AM 21.2 °F 14.9 °F 19.4 °F 93% 30.09 in 1.0 mi WSW 4.6 mph - 0.00 in Snow Light Snow
6:22 AM 21.2 °F 14.9 °F 17.6 °F 86% 30.09 in 1.2 mi West 4.6 mph - 0.00 in Snow Light Snow
6:30 AM 21.2 °F 14.9 °F 17.6 °F 86% 30.09 in 1.2 mi West 4.6 mph - 0.00 in Snow Light Snow
6:53 AM 21.9 °F 12.5 °F 18.0 °F 85% 30.13 in 1.2 mi NW 8.1 mph - 0.00 in Snow Light Snow
7:00 AM 21.2 °F 10.1 °F 15.8 °F 80% 30.09 in 1.0 mi NW 10.4 mph - 0.00 in Snow Light Snow
7:14 AM 19.4 °F 10.4 °F 15.8 °F 86% 30.10 in 1.8 mi NW 6.9 mph - 0.00 in Snow Light Snow
7:23 AM 19.4 °F 11.5 °F 15.8 °F 86% 30.09 in 2.0 mi NW 5.8 mph - 0.00 in Snow Light Snow
7:30 AM 19.4 °F 12.8 °F 15.8 °F 86% 30.09 in 1.8 mi NW 4.6 mph - 0.00 in Snow Light Snow
7:48 AM 19.4 °F - 15.8 °F 86% 30.09 in 2.0 mi Calm Calm - 0.00 in Snow Light Snow
7:53 AM 19.9 °F 13.4 °F 16.0 °F 85% 30.12 in 2.0 mi NW 4.6 mph - 0.00 in Snow Light Snow
8:08 AM 19.4 °F 14.3 °F 15.8 °F 86% 30.08 in 2.0 mi NW 3.5 mph - 0.00 in Snow Light Snow
8:23 AM 19.4 °F - 15.8 °F 86% 30.09 in 4.0 mi Calm Calm - 0.00 in Snow Light Snow
8:53 AM 21.0 °F 14.6 °F 16.0 °F 81% 30.14 in 9.0 mi West 4.6 mph - 0.00 in   Overcast
9:19 AM 21.2 °F 16.4 °F 15.8 °F 80% 30.11 in 10.0 mi West 3.5 mph - N/A   Overcast
9:53 AM 21.0 °F 10.6 °F 10.9 °F 65% 30.16 in 10.0 mi West 9.2 mph - N/A   Overcast
10:53 AM 21.9 °F 12.5 °F 10.9 °F 63% 30.16 in 10.0 mi West 8.1 mph - N/A   Overcast
11:53 AM 23.0 °F 13.9 °F 10.9 °F 60% 30.15 in 10.0 mi West 8.1 mph - N/A   Clear
12:53 PM 24.1 °F 15.2 °F 7.0 °F 48% 30.14 in 10.0 mi WSW 8.1 mph - N/A   Clear
1:53 PM 25.0 °F 14.8 °F 6.1 °F 45% 30.12 in 10.0 mi SW 10.4 mph 17.3 mph N/A   Clear
2:53 PM 27.0 °F 18.0 °F 1.9 °F 34% 30.11 in 10.0 mi SW 9.2 mph - N/A   Clear
3:53 PM 26.1 °F 17.6 °F 5.0 °F 41% 30.12 in 10.0 mi WSW 8.1 mph 18.4 mph N/A   Scattered Clouds
4:53 PM 26.1 °F 16.2 °F 8.1 °F 47% 30.15 in 10.0 mi WSW 10.4 mph 21.9 mph N/A   Clear
5:53 PM 25.0 °F 14.2 °F 10.0 °F 53% 30.17 in 10.0 mi WSW 11.5 mph 17.3 mph N/A   Clear
6:53 PM 24.1 °F 15.2 °F 10.9 °F 57% 30.22 in 10.0 mi WSW 8.1 mph - N/A   Clear
7:53 PM 23.0 °F 13.1 °F 10.9 °F 60% 30.25 in 10.0 mi West 9.2 mph - N/A   Clear
8:53 PM 23.0 °F 13.9 °F 10.0 °F 58% 30.27 in 10.0 mi WSW 8.1 mph 16.1 mph N/A   Clear
9:53 PM 21.9 °F 11.7 °F 10.0 °F 60% 30.28 in 10.0 mi WSW 9.2 mph - N/A   Clear
10:53 PM 21.0 °F 14.6 °F 9.0 °F 60% 30.29 in 10.0 mi WSW 4.6 mph - N/A   Clear
11:53 PM 21.0 °F 13.4 °F 9.0 °F 60% 30.33 in 10.0 mi WSW 5.8 mph - N/A   Clear